Погода Торгай

Погода Торгай : погода сейчас, прогноз погоды и архив. Всё, что Вы хотите узнать о погоде Торгай!

Хотите узнать прогноз погоды Торгай? Тогда Вам сюда: Погода Торгай

Поиск расширенной информации на нашем сайте:

Другие новости

Новости СМИ2

Главная страница сайта

Новости сайта

02.10.2013

Напоминаем, что на нашем новом сайте вы можете получить высокодетализированные прогнозы погоды по пунктам России, СНГ и мира (включающие важные для авиации метеовеличины, такие как направление и скорость ветра, видимость, явления погоды, количество и форма облачности, нижняя и верхняя граница облачности), а также ознакомиться с разнообразными материалами по авиационной метеорологии и подборкой полезных ссылок на эту тему.

Сайт Метеоцентр.Азия посвящён разработке технологий оптимизации авиаметеорологического обслуживания, включая проектирование и перспективное создание нескольких автоматизированных авиаметеорологических систем:
- система выпуска высокодетальных прогностических карт явлений погоды для нижнего воздушного пространства по России и ближнему зарубежью;
- система верификации прогнозов TAF (выпускаемых синоптиками официальных АМСГ РФ и ближнего зарубежья) и AUTOTAF (выпускаемых сайтом Метеоцентр.Азия) - выявление ошибок, онлайн-сопоставление с фактической погодой METAR, автоматическое внесение коррективов в прогнозы при резком отклонении фактической погоды от прогноза, подсчёт оправдываемости прогнозов по элементам и в целом;
- система обработки, анализа и отображения авиаметеорологической информации для применения провайдерами метеорологической информации.


Погода Торгай - сегодня

Время (UTC), дата Ветер
(°,м/с) 
Видим.   Явления Облачность Т
(°С)
Тd
(°С)
f(%) Тe
(°С)
Pmin
(гПа)
dP
(гПа)
Po
(мм)
O2
(г/м3)
Тmin Tmax R s Состояние
почвы
21 17.01.17 020 (С) н/о    ясно 
-18.4 -21.7 75 -19  1036.6  -0.6  763  331           
00 18.01.17 020 (С) н/о    ясно 
-19.8 -23.1 75 -23  1035.7  -0.8  763  333           
03 18.01.17 020 (С) н/о    ясно 
-20.4 -23.7 75 -25  1035.4  -0.5  762  334        16  равномерный
сухой снег
100% 
06 18.01.17 020 (С) 10 км    ясно 
-19.4 -22.7 75 -22  1034.9  -0.3  762  332  -20.4         
09 18.01.17 020 (С) 10 км    3/0 верхняя 
[Ci fib]
-17.2 -21.4 70 -20  1033.8  -1  761  329           
12 18.01.17 050 (СВ) 10 км    ясно 
-17 -21.3 69 -19  1033.4  -0.4  761  329           
15 18.01.17 020 (С) н/о    ясно 
-19.4 -23.5 70 -20  1032.7  -0.8  761  332    -16.8       
18 18.01.17 020 (С) н/о    ясно 
-19.6 -23.7 70 -20  1032.3  -0.4  760  332    -16.8       
21 18.01.17 020 (С) н/о    ясно 
-19.8 -24 69 -20  1031.7  -0.6  760  332           
00 19.01.17 020 (С) н/о    3/0 средняя 
[Ac lent]
-20.1 -24.3 69 -20  1031.4  -0.5  759  332           
03 19.01.17 020 (С) н/о    4/0 средняя 
[Ac lent]
-20.5 -23.4 78 -21  1029.6  -1.5  758  332        16  равномерный
сухой снег
100% 
06 19.01.17 050 (СВ) 10 км    3/0 верхняя 
[Ci fib]
-18 -22.1 70 -18  1029.1  -0.4  758  329  -21         
09 19.01.17 340 (С) 10 км    4/0 верхняя 
[Ci fib]
-15.2 -20.3 65 -15  1027.8  -1.1  757  325           
12 19.01.17 340 (С) 10 км    4/0 верхняя 
[Ci fib]
-16.8 -21 70 -17  1027.5  -0.5  757  327           
15 19.01.17 290 (З) н/о    ясно 
-18.2 -22.3 70 -18  1027.2  -0.4  757  328    -15       
18 19.01.17 290 (З) н/о    ясно 
-20.9 -24.9 70 -21  1027.3  -0.1  756  332    -15       
21 19.01.17 290 (З) н/о    ясно 
-22.4 -25.6 75 -23  1026.5  -0.9  756  334           
00 20.01.17 290 (З) н/о    ясно 
-21.8 -25 75 -22  1025.9  -0.4  755  333           
03 20.01.17 290 (З) н/о    3/0 средняя 
[Ac lent]
-23.3 -26.5 75 -24  1025.1  -0.9  755  334        16  равномерный
сухой снег
100% 
06 20.01.17 200 (Ю) 10 км    4/0 средняя 
[Ac lent]
-21.3 -25.3 70 -24  1025.1  0.1  755  332  -23.3         
09 20.01.17 200 (Ю) 10 км    6/0 средняя 
[Ac lent]
-19.2 -23.3 70 -22  1023.6  -1.3  754  328           
12 20.01.17 200 (Ю) 10 км    ясно 
-20.2 -24.3 70 -20  1023.3  -0.5  754  330           
15 20.01.17 200 (Ю) н/о    ясно 
-22.8 -26.8 70 -26  1022.7  -0.7  753  333    -19       
18 20.01.17 020 (С) н/о    ясно 
-24 -28 69 -24  1021  -1.6  752  334    -19       
21 20.01.17 020 (С) н/о    ясно 
-25.2 -28.4 75 -30  1020.6  -0.6  751  335           
Время (UTC), дата Ветер
(°,м/с) 
Видим.   Явления Облачность Т
(°С)
Тd
(°С)
f(%) Тe
(°С)
Pmin
(гПа)
dP
(гПа)
Po
(мм)
O2
(г/м3)
Тmin Tmax R s Состояние
почвы

Для получения пояснительной информации подведите курсор к названию столбца.

ПОГОДА Торгай - архив

Всё, что Вы хотите узнать о погоде Торгай - удобно и подробно!

Выберите нужную дату (начиная с 1 января 2015* года) и нажмите кнопку "Найти".
Будут отображены архивные сводки погоды по пункту Торгай, начиная с указанной даты.


Отображать данные в формате CSV (для использования в таблицах Excel)


Внимание! Наш архив погоды предназначен исключительно для личного некоммерческого использования в познавательных целях. Если Вам необходимы официальные справки о состоянии погоды (для производственных, юридических, коммерческих и т.п. целей), обращайтесь в органы Росгидромета.

*Примечание: данная дата относится к архиву по метеостанциям СССР (Россия, СНГ, Балтия).
Архив по метеостанциям Зарубежной Европы и Азии (кроме Китая) хранится 10 дней, по другим регионам земного шара (Китай, Африка, Америка, Австралия, Океания) - 1 день.

Торгай - район местоположения метеостанции


Название, широта, долгота, высота метеостанции:
Торгай 49.7°ш. 63.5°д. 123 м над ур. моря [Казахстан]

Дополнительная информация

В oтличие oт бoльшинства пoгoдных сайтoв мы публикуем пoдрoбную метеoинфoрмацию в детальнoм прoфессиoнальнoм фoрмате.

Характеристики температуры и влажнoсти вoздуха измеряются на высoте 2 м в тени вдали oт зданий и деревьев.
Скoрoсть ветра измеряется на высoте 10 м (на урoвне рoста челoвека скoрoсть ветра ниже в 1.5-2 раза). Если метеoстанция нахoдится в гoрoде или в лесу, тo скoрoсть ветра занижена на 2-4 м/с пo сравнению с oткрытым местoм. Скoрoсть ветра над акватoриями крупных рек и oзёр, а также на вершинах хoлмoв на 2-5 м/с выше, чем в oбычных услoвиях.
Атмoсфернoе давление в разных тoчках местнoсти мoжет значительнo oтличаться oт давления на метеoстанции, в зависимoсти oт услoвий рельефа (при пoдъёме на 10 м давление пoнижается примернo на 1 мм рт.ст.).